Auburn, CA

10:19 PM PST on November 19, 2019 (GMT -0800)
Auburn Municipal

Weather History for KAUN - September, 2019

Change the Weather History Date:

Tuesday, September 24, 2019

  Actual Average Record
Temperature  
Mean Temperature 80 °F -  
Max Temperature 93 °F 83 °F 101 °F (1964)
Min Temperature 68 °F 56 °F 44 °F (2005)
Cooling Degree Days 16    
Growing Degree Days 30 (Base 50)    
Moisture  
Dew Point 46 °F    
Average Humidity 31    
Maximum Humidity 56    
Minimum Humidity 20    
Precipitation  
Precipitation 0.00 in - - ()
Sea Level Pressure  
Sea Level Pressure 29.99 in    
Wind  
Wind Speed 5 mph ()    
Max Wind Speed 10 mph    
Max Gust Speed 16 mph    
Visibility 10.0 miles    
Events      
Averages and records for this station are not official NWS values.
T = Trace of Precipitation, MM = Missing Value Source: Averaged Metar Reports

Daily Weather History Graph

Daily Weather History Graph

Search for Another Location

Airport or City:

Astronomy

Sep. 24, 2019 Rise Set
Actual Time 6:53 AM PDT 6:58 PM PDT
Civil Twilight 6:27 AM PDT 7:24 PM PDT
Nautical Twilight 5:56 AM PDT 7:55 PM PDT
Astronomical Twilight 5:24 AM PDT 8:27 PM PDT
Moon 1:47 AM PDT (9/24) 4:45 PM PDT (9/24)
Length of Visible Light 12h 57m
Length of Day
12h 04m
Waning Crescent, 22% of the Moon is Illuminated
Sep 24
Waning Crescent
Sep 28
New
Oct 5
First Quarter
Oct 13
Full
Oct 21
Last Quarter

Hourly Weather History & Observations

Time (PDT) Temp. Dew Point Humidity Pressure Visibility Wind Dir Wind Speed Gust Speed Precip Events Conditions
12:15 AM 73.4 °F 39.2 °F 29% 30.02 in 10.0 mi ENE 5.8 mph - N/A   Clear
12:35 AM 73.4 °F 39.2 °F 29% 30.02 in 10.0 mi ENE 8.1 mph - N/A   Clear
12:55 AM 73.4 °F 39.2 °F 29% 30.02 in 10.0 mi East 6.9 mph - N/A   Clear
1:15 AM 71.6 °F 39.2 °F 31% 30.02 in 10.0 mi Calm Calm - N/A   Clear
1:35 AM 69.8 °F 39.2 °F 33% 30.03 in 10.0 mi Calm Calm - N/A   Clear
1:55 AM 71.6 °F 39.2 °F 31% 30.03 in 10.0 mi ENE 5.8 mph - N/A   Clear
2:15 AM 71.6 °F 39.2 °F 31% 30.03 in 10.0 mi Calm Calm - N/A   Clear
2:35 AM 73.4 °F 39.2 °F 29% 30.03 in 10.0 mi East 6.9 mph - N/A   Clear
2:55 AM 75.2 °F 39.2 °F 27% 30.03 in 10.0 mi East 9.2 mph 15.0 mph N/A   Clear
3:15 AM 75.2 °F 39.2 °F 27% 30.03 in 10.0 mi ENE 6.9 mph - N/A   Clear
3:35 AM 73.4 °F 39.2 °F 29% 30.03 in 10.0 mi East 4.6 mph - N/A   Clear
3:55 AM 73.4 °F 39.2 °F 29% 30.03 in 10.0 mi NE 5.8 mph - N/A   Clear
4:15 AM 73.4 °F 39.2 °F 29% 30.03 in 10.0 mi ENE 4.6 mph - N/A   Clear
4:35 AM 73.4 °F 39.2 °F 29% 30.03 in 10.0 mi ENE 6.9 mph - N/A   Clear
4:55 AM 73.4 °F 39.2 °F 29% 30.03 in 10.0 mi East 8.1 mph - N/A   Clear
5:15 AM 73.4 °F 39.2 °F 29% 30.03 in 10.0 mi ENE 5.8 mph - N/A   Clear
5:35 AM 73.4 °F 39.2 °F 29% 30.04 in 10.0 mi ENE 5.8 mph - N/A   Clear
5:55 AM 71.6 °F 39.2 °F 31% 30.04 in 10.0 mi ENE 5.8 mph - N/A   Clear
6:15 AM 73.4 °F 39.2 °F 29% 30.04 in 10.0 mi ENE 4.6 mph - N/A   Clear
6:35 AM 73.4 °F 37.4 °F 27% 30.04 in 10.0 mi ENE 6.9 mph - N/A   Clear
6:55 AM 75.2 °F 37.4 °F 25% 30.05 in 10.0 mi East 6.9 mph - N/A   Clear
7:15 AM 73.4 °F 37.4 °F 27% 30.05 in 10.0 mi East 5.8 mph - N/A   Clear
7:35 AM 75.2 °F 39.2 °F 27% 30.05 in 10.0 mi East 8.1 mph - N/A   Clear
7:55 AM 77.0 °F 39.2 °F 26% 30.05 in 10.0 mi East 5.8 mph - N/A   Clear
8:15 AM 78.8 °F 39.2 °F 24% 30.05 in 10.0 mi East 6.9 mph - N/A   Clear
8:35 AM 78.8 °F 41.0 °F 26% 30.06 in 10.0 mi ENE 3.5 mph - N/A   Clear
8:55 AM 80.6 °F 41.0 °F 24% 30.06 in 10.0 mi ENE 6.9 mph - N/A   Clear
9:15 AM 82.4 °F 42.8 °F 25% 30.06 in 10.0 mi East 4.6 mph - N/A   Clear
9:55 AM 84.2 °F 44.6 °F 25% 30.06 in 10.0 mi Calm Calm - N/A   Clear
10:15 AM 84.2 °F 44.6 °F 25% 30.06 in 10.0 mi Calm Calm - N/A   Clear
10:35 AM 86.0 °F 46.4 °F 25% 30.05 in 10.0 mi Calm Calm - N/A   Clear
10:55 AM 87.8 °F 46.4 °F 24% 30.05 in 10.0 mi Variable 4.6 mph - N/A   Clear
11:15 AM 87.8 °F 46.4 °F 24% 30.05 in 10.0 mi West 5.8 mph - N/A   Clear
11:35 AM 86.0 °F 51.8 °F 31% 30.04 in 10.0 mi West 6.9 mph - N/A   Clear
11:55 AM 86.0 °F 50.0 °F 29% 30.03 in 10.0 mi WSW 8.1 mph - N/A   Clear
12:15 PM 86.0 °F 50.0 °F 29% 30.03 in 10.0 mi West 8.1 mph - N/A   Clear
12:35 PM 87.8 °F 50.0 °F 27% 30.02 in 10.0 mi West 8.1 mph - N/A   Clear
12:55 PM 89.6 °F 50.0 °F 26% 30.01 in 10.0 mi West 8.1 mph - N/A   Clear
1:15 PM 89.6 °F 50.0 °F 26% 30.00 in 10.0 mi West 9.2 mph - N/A   Clear
1:35 PM 89.6 °F 50.0 °F 26% 29.99 in 10.0 mi West 10.4 mph - N/A   Clear
1:55 PM 89.6 °F 51.8 °F 27% 29.98 in 10.0 mi West 6.9 mph 13.8 mph N/A   Clear
2:15 PM 91.4 °F 51.8 °F 26% 29.97 in 10.0 mi West 6.9 mph 13.8 mph N/A   Clear
2:35 PM 91.4 °F 50.0 °F 24% 29.97 in 10.0 mi WNW 10.4 mph - N/A   Clear
2:55 PM 91.4 °F 48.2 °F 23% 29.96 in 10.0 mi WNW 10.4 mph - N/A   Clear
3:15 PM 93.2 °F 46.4 °F 20% 29.95 in 10.0 mi WNW 8.1 mph 16.1 mph N/A   Clear
3:35 PM 91.4 °F 46.4 °F 21% 29.95 in 10.0 mi West 8.1 mph - N/A   Clear
3:55 PM 91.4 °F 48.2 °F 23% 29.94 in 10.0 mi WNW 9.2 mph - N/A   Clear
4:15 PM 91.4 °F 48.2 °F 23% 29.94 in 10.0 mi WNW 6.9 mph 13.8 mph N/A   Clear
4:35 PM 91.4 °F 48.2 °F 23% 29.93 in 10.0 mi West 10.4 mph - N/A   Clear
4:55 PM 91.4 °F 48.2 °F 23% 29.93 in 10.0 mi WNW 8.1 mph - N/A   Clear
5:15 PM 91.4 °F 48.2 °F 23% 29.92 in 10.0 mi West 6.9 mph - N/A   Clear
5:35 PM 89.6 °F 48.2 °F 24% 29.92 in 10.0 mi WNW 6.9 mph - N/A   Clear
6:15 PM 87.8 °F 48.2 °F 25% 29.91 in 10.0 mi WNW 4.6 mph - N/A   Clear
6:55 PM 84.2 °F 50.0 °F 30% 29.91 in 10.0 mi Calm Calm - N/A   Clear
7:15 PM 77.0 °F 51.8 °F 41% 29.90 in 10.0 mi Calm Calm - N/A   Clear
7:35 PM 73.4 °F 53.6 °F 50% 29.90 in 10.0 mi Calm Calm - N/A   Clear
7:55 PM 73.4 °F 53.6 °F 50% 29.90 in 10.0 mi Calm Calm - N/A   Clear
8:10 PM 75.2 °F 53.6 °F 47% 29.90 in 10.0 mi Calm Calm - N/A   Clear
8:35 PM 78.8 °F 51.8 °F 39% 29.90 in 10.0 mi East 5.8 mph - N/A   Clear
8:55 PM 80.6 °F 51.8 °F 37% 29.89 in 10.0 mi East 8.1 mph - N/A   Clear
9:15 PM 78.8 °F 51.8 °F 39% 29.89 in 10.0 mi Calm Calm - N/A   Clear
9:35 PM 78.8 °F 51.8 °F 39% 29.89 in 10.0 mi Calm Calm - N/A   Clear
9:55 PM 73.4 °F 51.8 °F 47% 29.89 in 10.0 mi Calm Calm - N/A   Clear
10:15 PM 73.4 °F 51.8 °F 47% 29.89 in 10.0 mi Calm Calm - N/A   Clear
10:35 PM 73.4 °F 51.8 °F 47% 29.89 in 10.0 mi Calm Calm - N/A   Clear
10:55 PM 71.6 °F 53.6 °F 53% 29.89 in 10.0 mi Calm Calm - N/A   Clear
11:15 PM 71.6 °F 51.8 °F 50% 29.90 in 10.0 mi Calm Calm - N/A   Clear
11:35 PM 68.0 °F 51.8 °F 56% 29.90 in 10.0 mi Calm Calm - N/A   Clear
11:55 PM 71.6 °F 50.0 °F 46% 29.90 in 10.0 mi Calm Calm - N/A   Clear